Waarnemingen

Advertentie
Mijn weer
Santiago de Compostela/Labacolla, Spanje (8042): temperatuur & dauwpunt: 19.02.2018 10:00:00 - 25.02.2018 10:00:00 (CET)Santiago de Compostela/Labacolla, Spanje (8042): windsnelheid: 19.02.2018 10:00:00 - 25.02.2018 10:00:00 (CET)Santiago de Compostela/Labacolla, Spanje (8042): windrichting: 19.02.2018 10:00:00 - 25.02.2018 10:00:00 (CET)Santiago de Compostela/Labacolla, Spanje (8042): luchtdruk: 19.02.2018 10:00:00 - 25.02.2018 10:00:00 (CET)Santiago de Compostela/Labacolla, Spanje (8042): zicht: 19.02.2018 10:00:00 - 25.02.2018 10:00:00 (CET)
Datum & Tijd tt [°C] td [°C] ff [km/u] ff [kn] dd ppp [hPa] vv [km]
25.02.2018 10:00:00 5,3 -0,8 9 5 OZO 1012,9 30
25.02.2018 09:00:00 3,5 -2,5 2 1 ZO 1012,8 26
25.02.2018 08:00:00 2,8 -1,3 4 2 OZO 1012,4 10
25.02.2018 07:00:00 2,0 -0,8 4 2 OZO 1012,1 10
25.02.2018 06:00:00 2,0 -0,1 5 3 Z 1011,8 11
25.02.2018 05:00:00 2,2 0,4 5 3 ZZO 1011,4 10
25.02.2018 04:00:00 2,3 0,4 5 3 ZZO 1011,4 10
25.02.2018 03:00:00 2,5 1,0 0 0 N 1011,4 11
25.02.2018 02:00:00 2,7 0,8 0 0 N 1011,2 11
25.02.2018 01:00:00 3,3 1,0 4 2 ZO 1010,8 10
25.02.2018 00:00:00 3,9 1,1 4 2 OZO 1010,4 14
24.02.2018 23:00:00 5,1 1,0 4 2 O 1009,9 20
24.02.2018 22:00:00 5,9 0,6 2 1 ONO 1009,2 25
24.02.2018 21:00:00 7,2 0,0 8 4 N 1008,6 28
24.02.2018 20:00:00 7,9 -0,2 8 4 N 1007,7 26
24.02.2018 19:00:00 11,0 -2,8 0 0 N 1006,5 30
24.02.2018 18:00:00 12,9 -4,9 5 3 N 1005,9 30
24.02.2018 17:00:00 13,2 -4,5 8 4 WNW 1005,7 30
24.02.2018 16:00:00 13,0 -3,5 8 4 N 1005,5 30
24.02.2018 15:00:00 12,5 -4,0 8 4 WNW 1005,8 30
24.02.2018 14:00:00 12,4 -3,2 4 2 ZZO 1006,4 30
24.02.2018 13:00:00 11,3 -1,7 4 2 OZO 1006,9 30
24.02.2018 12:00:00 8,8 -3,7 8 4 ZO 1007,3 30
24.02.2018 11:00:00 7,4 -2,9 8 4 ZO 1007,4 30
24.02.2018 10:00:00 4,6 -2,4 5 3 ZO 1007,8 25
24.02.2018 09:00:00 1,3 -4,4 0 0 N 1008,2 30
24.02.2018 08:00:00 0,7 -4,7 0 0 N 1007,6 30
24.02.2018 07:00:00 0,8 -4,6 0 0 N 1007,3 30
24.02.2018 06:00:00 1,3 -2,6 0 0 N 1007,0 23
24.02.2018 05:00:00 1,6 -0,8 0 0 N 1006,7 16
24.02.2018 04:00:00 2,0 -0,3 4 2 ZO 1006,9 20
24.02.2018 03:00:00 2,3 -0,1 0 0 N 1006,9 15
24.02.2018 02:00:00 3,1 0,2 4 2 OZO 1006,9 17
24.02.2018 01:00:00 3,3 1,1 4 2 ZO 1007,0 20
24.02.2018 00:00:00 3,6 2,1 0 0 N 1007,1 12
23.02.2018 23:00:00 4,0 2,1 8 4 NNW 1007,1 13
23.02.2018 22:00:00 4,8 2,8 9 5 NNW 1006,8 20
23.02.2018 21:00:00 6,1 3,6 13 7 NW 1006,6 11
23.02.2018 20:00:00 7,5 3,5 13 7 NW 1006,2 16
23.02.2018 19:00:00 10,5 1,6 4 2 N 1005,2 40
23.02.2018 18:00:00 12,4 1,4 2 1 NNO 1004,7 30
23.02.2018 17:00:00 13,0 0,5 8 4 NNW 1004,8 30
23.02.2018 16:00:00 12,6 -0,4 5 3 NNO 1005,4 40
23.02.2018 15:00:00 13,2 1,4 4 2 NO 1005,9 30
23.02.2018 14:00:00 12,0 -1,2 4 2 ZZO 1006,6 40
23.02.2018 13:00:00 10,8 -3,8 8 4 ZZO 1007,4 40
23.02.2018 12:00:00 9,1 -3,8 8 4 OZO 1008,0 30
23.02.2018 11:00:00 6,8 -6,0 13 7 ZO 1008,5 30
23.02.2018 10:00:00 4,6 -4,9 11 6 ZO 1008,9 40
23.02.2018 09:00:00 - - - - - - -
23.02.2018 08:00:00 - - - - - - -
23.02.2018 07:00:00 - - - - - - 20
23.02.2018 06:00:00 - - - - - - -
23.02.2018 05:00:00 - - - - - - -
23.02.2018 04:00:00 - - - - - - -
23.02.2018 03:00:00 - - - - - - 30
23.02.2018 02:00:00 - - - - - - -
23.02.2018 01:00:00 2,8 0,5 2 1 OZO 1010,6 15
23.02.2018 00:00:00 3,2 0,5 0 0 N 1010,8 10
22.02.2018 23:00:00 3,6 0,8 4 2 ONO 1011,0 13
22.02.2018 22:00:00 4,0 1,0 4 2 O 1011,2 15
22.02.2018 21:00:00 5,6 1,3 4 2 NO 1010,9 17
22.02.2018 20:00:00 7,4 1,0 2 1 NNO 1010,6 30
22.02.2018 19:00:00 9,8 1,0 8 4 N 1010,1 30
22.02.2018 18:00:00 12,0 -0,9 5 3 NNO 1009,8 30
22.02.2018 17:00:00 12,5 0,3 8 4 N 1010,0 30
22.02.2018 16:00:00 12,4 1,3 8 4 N 1010,5 40
22.02.2018 15:00:00 11,6 2,1 8 4 N 1011,1 30
22.02.2018 14:00:00 10,7 1,4 5 3 ZO 1011,9 30
22.02.2018 13:00:00 10,0 1,6 4 2 NO 1012,7 40
22.02.2018 12:00:00 8,7 1,4 8 4 ZO 1013,1 30
22.02.2018 11:00:00 6,7 1,1 4 2 O 1013,7 30
22.02.2018 10:00:00 4,4 0,4 5 3 OZO 1014,3 30
22.02.2018 09:00:00 1,7 -0,7 4 2 O 1014,6 30
22.02.2018 08:00:00 1,4 -1,0 5 3 OZO 1014,4 30
22.02.2018 07:00:00 0,9 -1,0 4 2 O 1014,4 30
22.02.2018 06:00:00 1,1 -0,7 4 2 O 1014,2 30
22.02.2018 05:00:00 2,1 -0,5 4 2 ONO 1014,0 30
22.02.2018 04:00:00 2,3 -0,6 4 2 NO 1014,4 30
22.02.2018 03:00:00 3,0 -0,6 4 2 NNO 1014,9 30
22.02.2018 02:00:00 3,6 -0,1 5 3 NO 1015,2 30
22.02.2018 01:00:00 4,1 0,6 4 2 OZO 1015,3 30
22.02.2018 00:00:00 4,6 1,4 8 4 NNO 1015,4 30
21.02.2018 23:00:00 5,1 1,6 8 4 NO 1015,7 30
21.02.2018 22:00:00 5,5 1,8 9 5 ONO 1015,7 30
21.02.2018 21:00:00 5,7 2,0 11 6 ONO 1015,6 30
21.02.2018 20:00:00 6,5 1,3 9 5 NO 1015,5 30
21.02.2018 19:00:00 7,6 2,1 11 6 NO 1015,4 30
21.02.2018 18:00:00 9,3 1,7 13 7 ONO 1015,2 30
21.02.2018 17:00:00 10,2 2,1 13 7 ONO 1015,1 30
21.02.2018 16:00:00 10,8 1,6 13 7 ONO 1015,4 30
21.02.2018 15:00:00 11,7 2,1 13 7 NO 1015,9 30
21.02.2018 14:00:00 10,9 1,6 13 7 NO 1017,1 30
21.02.2018 13:00:00 9,7 1,8 11 6 ONO 1018,2 30
21.02.2018 12:00:00 9,1 1,6 15 8 ONO 1018,7 30
21.02.2018 11:00:00 7,8 2,4 9 5 ONO 1019,2 27
21.02.2018 10:00:00 6,0 1,8 8 4 NNO 1019,6 30
21.02.2018 09:00:00 4,8 1,5 4 2 NNO 1019,8 17
21.02.2018 08:00:00 4,9 1,0 5 3 NO 1019,8 26
21.02.2018 07:00:00 5,8 1,7 8 4 NO 1020,2 30
21.02.2018 06:00:00 6,5 2,3 9 5 NNO 1020,1 30
21.02.2018 05:00:00 7,2 3,8 8 4 NO 1020,2 30
21.02.2018 04:00:00 7,2 5,0 5 3 ONO 1020,8 30
21.02.2018 03:00:00 6,7 6,0 9 5 NNO 1021,8 30
21.02.2018 02:00:00 7,3 6,4 8 4 NNO 1022,3 29
21.02.2018 01:00:00 8,1 7,0 8 4 NNO 1022,5 30
21.02.2018 00:00:00 8,0 6,9 8 4 NNO 1023,1 25
20.02.2018 23:00:00 7,3 6,1 4 2 NNO 1023,6 30
20.02.2018 22:00:00 7,8 5,8 5 3 NO 1023,8 30
20.02.2018 21:00:00 9,0 5,6 5 3 NO 1023,7 30
20.02.2018 20:00:00 9,4 5,3 8 4 NO 1023,7 30
20.02.2018 19:00:00 9,7 5,3 9 5 ONO 1023,2 30
20.02.2018 18:00:00 10,9 5,7 11 6 NO 1022,7 30
20.02.2018 17:00:00 11,4 5,3 13 7 ONO 1023,1 30
20.02.2018 16:00:00 12,6 5,0 9 5 NO 1022,9 40
20.02.2018 15:00:00 12,6 5,3 11 6 NNO 1023,3 30
20.02.2018 14:00:00 11,8 6,1 11 6 NNO 1024,0 30
20.02.2018 13:00:00 11,3 5,5 13 7 NNO 1024,5 40
20.02.2018 12:00:00 10,6 5,3 9 5 NO 1024,9 30
20.02.2018 11:00:00 9,3 6,2 8 4 NO 1025,3 30
20.02.2018 10:00:00 6,9 5,6 5 3 NNO 1025,7 30
20.02.2018 09:00:00 5,9 4,9 4 2 N 1025,3 30
20.02.2018 08:00:00 6,1 5,4 4 2 NNO 1025,2 23
20.02.2018 07:00:00 6,1 5,2 4 2 N 1025,1 20
20.02.2018 06:00:00 6,6 5,7 4 2 NNO 1025,1 12
20.02.2018 05:00:00 7,4 6,0 9 5 NNO 1025,0 22
20.02.2018 04:00:00 7,6 6,2 8 4 NNO 1025,0 15
20.02.2018 03:00:00 7,5 6,8 9 5 NNO 1025,3 16
20.02.2018 02:00:00 7,3 6,6 9 5 N 1025,4 13
20.02.2018 01:00:00 8,0 7,1 9 5 NNO 1025,4 15
20.02.2018 00:00:00 8,0 7,1 9 5 N 1025,2 11
19.02.2018 23:00:00 7,6 6,7 8 4 NNO 1025,1 11
19.02.2018 22:00:00 8,3 7,1 15 8 N 1025,3 15
19.02.2018 21:00:00 8,3 7,1 15 8 N 1025,0 19
19.02.2018 20:00:00 8,6 6,9 15 8 N 1024,7 25
19.02.2018 19:00:00 9,4 7,0 11 6 N 1024,3 20
19.02.2018 18:00:00 10,3 6,7 15 8 N 1024,0 26
19.02.2018 17:00:00 10,5 7,7 15 8 N 1023,9 25
19.02.2018 16:00:00 10,5 7,2 16 9 N 1024,2 15
19.02.2018 15:00:00 10,3 7,3 16 9 N 1024,5 30
19.02.2018 14:00:00 10,2 7,7 11 6 N 1024,8 19
19.02.2018 13:00:00 9,5 7,9 5 3 N 1025,2 8
19.02.2018 12:00:00 9,7 7,5 4 2 NNO 1025,2 24
19.02.2018 11:00:00 9,1 7,9 8 4 NNO 1025,2 17
19.02.2018 10:00:00 7,7 7,6 4 2 NNO 1025,4 7

tt = temperatuur
td = dauwpunt
ff = windsnelheid
dd = windrichting
ppp = luchtdruk
vv = zicht

Weerstations in de omgeving